Weather History for North Platte, NE

Change the Weather History Date:

Monday, November 19, 2012

  Actual Average Record
Temperature  
Mean Temperature 45 °F 34 °F  
Max Temperature 65 °F 48 °F 81 °F (2007)
Min Temperature 24 °F 19 °F -5 °F (1881)
Degree Days  
Heating Degree Days 20 31  
Month to date heating degree days 477 508  
Since 1 July heating degree days 1178 1177  
Cooling Degree Days 0 0  
Month to date cooling degree days 0 0  
Year to date cooling degree days 1245 768  
Moisture  
Dew Point 26 °F    
Average Humidity 59    
Maximum Humidity 92    
Minimum Humidity 26    
Precipitation  
Precipitation 0.00 in 0.02 in 1.02 in (1930)
Month to date precipitation T 0.46  
Year to date precipitation 9.62 19.64  
Snow  
Snow 0.00 in 0.10 in 6.50 in (1975)
Month to date snowfall T 2.3  
Since 1 July snowfall 2.2 4.6  
Since 1 September snowfall 2.2 4.6  
Snow Depth 0.00 in    
Sea Level Pressure  
Sea Level Pressure 30.16 in    
Wind  
Wind Speed 6 mph (NW)    
Max Wind Speed 21 mph    
Max Gust Speed 26 mph    
Visibility 9 miles    
Events      
T = Trace of Precipitation, MM = Missing Value Source: NWS Daily Summary

Daily Weather History Graph

Daily Weather History Graph

Search for Another Location

Airport:

Trip Planner

Search our weather history database for the weather conditions in past years. The results will help you decide how hot, cold, wet, or windy it might be!

Date:

Astronomy

Nov. 19, 2012 Rise Set
Actual Time 7:35 AM CST 5:20 PM CST
Civil Twilight 7:05 AM CST 5:50 PM CST
Nautical Twilight 6:32 AM CST 6:23 PM CST
Astronomical Twilight 5:59 AM CST 6:56 PM CST
Moon 12:38 PM CST (11/19) 11:50 PM CST (11/19)
Length of Visible Light 10h 44m
Length of Day
9h 44m
Waxing Crescent, 41% of the Moon is Illuminated
Nov 19
Waxing Crescent
Nov 20
First Quarter
Nov 28
Full
Dec 6
Last Quarter
Dec 13
New

Hourly Weather History & Observations

Time (CST) Temp. Windchill Dew Point Humidity Pressure Visibility Wind Dir Wind Speed Gust Speed Precip Events Conditions
12:53 AM 26.1 °F - 24.1 °F 92% 30.03 in 5.0 mi Calm Calm - N/A   Clear
1:53 AM 27.0 °F 18.7 °F 25.0 °F 92% 30.03 in 5.0 mi NW 8.1 mph - N/A   Clear
2:53 AM 25.0 °F 17.1 °F 23.0 °F 92% 30.05 in 7.0 mi WNW 6.9 mph - N/A   Clear
3:53 AM 25.0 °F 17.1 °F 23.0 °F 92% 30.07 in 7.0 mi NW 6.9 mph - N/A   Clear
4:53 AM 28.0 °F 21.7 °F 26.1 °F 92% 30.07 in 7.0 mi NW 5.8 mph - N/A   Clear
5:53 AM 27.0 °F 19.5 °F 25.0 °F 92% 30.12 in 9.0 mi NW 6.9 mph - N/A   Clear
6:53 AM 27.0 °F 23.0 °F 24.1 °F 89% 30.14 in 10.0 mi NW 3.5 mph - N/A   Clear
7:53 AM 28.0 °F 22.8 °F 25.0 °F 88% 30.17 in 10.0 mi NNW 4.6 mph - N/A   Clear
8:53 AM 33.1 °F 28.7 °F 28.9 °F 85% 30.21 in 10.0 mi NW 4.6 mph - N/A   Clear
9:53 AM 44.1 °F 38.6 °F 33.1 °F 65% 30.20 in 10.0 mi WNW 10.4 mph - N/A   Clear
10:53 AM 50.0 °F - 32.0 °F 50% 30.20 in 10.0 mi West 6.9 mph - N/A   Clear
11:53 AM 59.0 °F - 30.9 °F 35% 30.18 in 10.0 mi NW 17.3 mph - N/A   Clear
12:53 PM 62.1 °F - 30.9 °F 31% 30.17 in 10.0 mi NW 13.8 mph - N/A   Clear
1:53 PM 64.9 °F - 30.0 °F 27% 30.15 in 10.0 mi NW 11.5 mph 20.7 mph N/A   Clear
2:53 PM 64.0 °F - 28.9 °F 27% 30.14 in 10.0 mi WNW 12.7 mph - N/A   Clear
3:53 PM 62.1 °F - 28.9 °F 29% 30.16 in 10.0 mi West 6.9 mph - N/A   Clear
4:53 PM 59.0 °F - 28.0 °F 31% 30.16 in 10.0 mi NNW 5.8 mph - N/A   Clear
5:53 PM 48.0 °F - 27.0 °F 44% 30.19 in 10.0 mi North 4.6 mph - N/A   Clear
6:53 PM 44.1 °F - 26.1 °F 49% 30.22 in 10.0 mi Calm Calm - N/A   Clear
7:53 PM 34.0 °F - 24.1 °F 67% 30.25 in 10.0 mi Calm Calm - N/A   Clear
8:53 PM 35.1 °F - 24.1 °F 64% 30.25 in 10.0 mi Calm Calm - N/A   Clear
9:53 PM 30.9 °F - 23.0 °F 72% 30.24 in 10.0 mi Calm Calm - N/A   Clear
10:53 PM 28.0 °F - 21.9 °F 78% 30.23 in 10.0 mi Calm Calm - N/A   Clear
11:53 PM 27.0 °F 23.0 °F 21.9 °F 81% 30.22 in 10.0 mi NW 3.5 mph - N/A   Clear